Language selection

My Weather Profile Weather Topics  | 

Queen Charlotte Sound - eastern half: Past 24 Hour Conditions

 

South Moresby - 46147

06:00 AM PDT 17 August 2022Buoy position: 51.83N 131.23W
Disclaimer

This table is a summary of hourly weather conditions for the past 24 hours.
Please note that these observations might not always be representative of weather conditions over their associated marine area.

Date / Time
(PDT)
Wind(knots) Wave height(m) Wave period(s) Pressure(kPa) Air tempC) Water tempC)
17 August 2022
6:00 SE 8 gust 9 1.7 8.5 102.0 16 16
5:00 SSE 9 gust 11 1.7 8.5 102.0 15 16
4:00 SSE 9 gust 12 1.6 6.6 102.0 15 16
3:00 SSE 11 gust 13 1.7 7.5 101.9 15 16
2:00 SSE 12 gust 15 1.7 8.8 101.9 16 15
1:00 SSE 11 gust 13 1.6 6.6 101.9 16 15
0:00 SSE 13 gust 16 1.5 9.8 101.9 15 14
16 August 2022
23:00 SSE 12 gust 15 1.6 9.1 101.9 15 13
22:00 SSE 13 gust 16 N/A 6.4 101.8 15 13
21:00 SE 13 gust 16 1.8 5.7 101.8 15 13
20:00 SE 13 gust 15 1.8 8.3 101.7 15 13
19:00 SE 13 gust 16 1.8 5.6 101.7 16 14
18:00 SSE 13 gust 16 1.9 5.7 101.7 16 14
17:00 SE 13 gust 16 2.0 10.2 101.7 16 14
16:00 SSE 13 gust 15 2.2 8.8 101.7 15 13
15:00 SSE 15 gust 17 2.2 10.2 101.7 15 13
14:00 SSE 16 gust 19 2.1 10.2 101.7 16 13
13:00 SSE 16 gust 18 2.0 9.8 101.6 16 13
12:00 SSE 14 gust 17 1.8 9.1 101.6 16 13
11:00 SE 15 gust 17 1.7 10.7 101.6 15 14
10:00 SE 15 gust 18 1.5 10.7 101.5 15 13
9:00 ESE 15 gust 17 1.6 10.7 101.5 15 13
8:00 ESE 13 gust 16 1.5 5.0 101.5 14 14
7:00 SE 11 gust 14 1.4 4.9 101.5 15 14
6:00 SE 13 gust 16 1.2 14.2 101.5 15 14

Zoom-in to make a selection

Map of Pacific - North Coast marine weather areas Middle Nomad - 46004 South Nomad - 46036 Dixon Entrance Central - 46145 South Moresby - 46147 Nanakwa Shoal - 46181 North Hecate Strait - 46183 North Nomad - 46184 South Hecate Strait - 46185 West Sea Otter - 46204 West Dixon Entrance - 46205 East Dellwood - 46207 West Moresby - 46208 Sartine Island Cape St.James Kindakun Rocks Langara Island Masset Municipal Airport Rose Spit Sandspit Airport Bella Bella Airport Bella Coola Airport Bonilla Island Cathedral Point Cumshewa Island Grey Islet Holland Rock Lucy Islands Lightstation Prince Rupert Airport
Legend:
buoy Buoy
land station Land Station

Pacific - North Coast Area

Another Region

What we are doing

Features

WeatherCAN app: set custom notifications

Learn how to set custom Air Quality Health Index notifications on the WeatherCAN app

Are you prepared for summer severe weather?

We have information to help you stay safe

Date modified: